Home   Weather   Sopron   Past weeks

Flag for Hungary Past Weather in Sopron, Hungary — Yesterday and Last 2 Weeks

Now
43 °F

Quite cool.


Feels Like: 43 °F
Forecast: 34 / 57 °F
Wind: 1 mph from North

Location: Eisenstadt

Current Time: Apr 29, 2017 at 11:30:37 pm

Latest Report: Apr 29, 2017 at 10:00 pm


Visibility: N/A

Pressure: 30.09 "Hg

Humidity: 81%

Dew Point: 38 °F

Location of SopronLocation

Past Weather in Sopron — Graph

°F

Sopron Temperature Yesterday

Maximum temperature yesterday: 45 °F (at 4:00 pm)
Minimum temperature yesterday: 41 °F (at 9:00 am)
Average temperature yesterday: 43 °F

High & Low Weather Summary for the Past Weeks

 TemperatureHumidityPressure
High75 °F (Apr 25, 3:00 pm)95% (Apr 19, 9:00 pm)30.48 "Hg (Apr 19, 9:00 pm)
Low31 °F (Apr 21, 6:00 am)30% (Apr 25, 2:00 pm)29.65 "Hg (Apr 25, 7:00 pm)
Average47 °F68%30.01 "Hg
* Reported Apr 14 9:00 pm — Apr 29 9:00 pm, Sopron, Weather by CustomWeather, © 2017

Note: Actual official high and low records may vary slightly from our data, if they occured in-between our weather recording intervals... More about our weather records

Advertising

Sopron Weather History for the Previous 24 Hours

Scroll right to see more
 ConditionsComfort  
Time TempWeatherWind HumidityBarometerVisibility
9:00 pm
Sat, Apr 29
46 °FCool.2 mph77%30.08 "HgN/A
8:00 pm48 °FPartly sunny.3 mph71%30.06 "Hg12 mi
7:00 pm54 °FPartly sunny.2 mph49%30.04 "Hg12 mi
6:00 pm54 °FCool.5 mph48%30.04 "HgN/A
5:00 pm56 °FOvercast.2 mph42%30.03 "Hg9 mi
4:00 pm55 °FCool.3 mph46%30.04 "HgN/A
3:00 pm57 °FRefreshingly cool.3 mph43%30.03 "HgN/A
2:00 pm56 °FRefreshingly cool.3 mph41%30.03 "HgN/A
1:00 pm53 °FCool.5 mph45%30.05 "HgN/A
12:00 pm53 °FCool.3 mph50%30.07 "HgN/A
11:00 am52 °FSunny.5 mph55%30.08 "Hg7 mi
10:00 am50 °FCool.6 mph60%30.08 "HgN/A
9:00 am47 °FCool.5 mph66%30.09 "HgN/A
8:00 am43 °FQuite cool.1 mph76%30.09 "HgN/A
7:00 am41 °FQuite cool.3 mph77%30.07 "HgN/A
6:00 am39 °FSunny.2 mph82%30.05 "Hg6 mi
5:00 am39 °FClear.1 mph82%30.02 "Hg6 mi
4:00 am41 °FClear.3 mph76%30.00 "Hg6 mi
3:00 am42 °FQuite cool.7 mph75%29.97 "HgN/A
2:00 am42 °FClear.7 mph75%29.96 "Hg6 mi
1:00 am42 °FQuite cool.9 mph75%29.95 "HgN/A
12:00 am42 °FQuite cool.7 mph75%29.95 "HgN/A
11:00 pm
Fri, Apr 28
43 °FOvercast.8 mph73%29.91 "Hg9 mi
Weather by CustomWeather, © 2017

See weather overviewHow to use our weather pages